Location: Theydon Bois
(51.6750°N, 0.1050°E)
Time: 01:44:20
(UTC+00:00)

Daily predictions for brighter satellites

Satellite Brightness Start Highest point End
(mag) Time Altitude Azimuth Time Altitude Azimuth Time Altitude Azimuth
Cosmos 2322 Rocket 4.4 03:22:49 21° ENE 03:22:49 21° ENE 03:25:31 10° E
Cosmos 2344 4.3 03:24:33 75° N 03:25:15 77° NE 03:38:40 10° SE
Cosmos 2082 Rocket 3.8 03:51:13 31° ENE 03:51:13 31° ENE 03:54:22 10° NE
Cosmos 1833 Rocket 4.2 03:55:57 31° NE 03:55:57 31° NE 03:58:58 10° NE
USA 234 3.7 03:50:52 10° ESE 03:55:47 55° ESE 03:55:47 55° ESE
CZ-4B R/B 4.2 04:05:13 10° NNE 04:09:34 44° ENE 04:09:34 44° ENE
CZ-4C R/B 4.4 04:12:11 11° SSE 04:15:49 22° ESE 04:20:12 10° ENE
SeaSat 1 3.9 04:12:04 10° NE 04:16:33 33° ESE 04:17:13 32° SE
Cosmos 2360 Rocket 3.8 04:16:27 26° NNE 04:17:38 27° NE 04:22:27 10° E
Cosmos 1980 Rocket 3.9 04:23:40 23° SSE 04:23:40 23° SSE 04:25:43 10° SSE
Cosmos 2219 Rocket 4.4 04:24:47 15° N 04:26:22 16° NNE 04:29:49 10° ENE
COSMO-SKYMED 1 4.1 04:32:17 10° SE 04:34:51 32° SE 04:34:51 32° SE
Okean-O 4.5 04:33:51 10° NNE 04:37:46 29° E 04:41:39 10° SSE
Cosmos 2237 Rocket 4.4 04:40:15 12° N 04:42:03 14° NNE 04:45:01 10° NE
Meteor 2-4 Rocket 4.2 04:50:32 46° S 04:50:32 46° S 04:54:21 10° S
IDEFIX/ARIANE 42P 4.0 04:46:20 10° NNE 04:51:07 36° E 04:55:55 10° SSE
ATLAS 5 CENTAUR R/B 3.5 04:51:30 27° N 04:52:22 29° NNE 04:57:33 10° ENE
Okean 2 4.4 04:55:11 42° ENE 04:55:34 43° ENE 04:59:29 10° SSE
SL-16 R/B 2.1 04:59:11 65° NNW 05:00:04 86° ENE 05:05:45 10° SSE
USA 267 3.2 04:56:04 10° ENE 05:02:38 81° SSE 05:04:59 43° SW
Cosmos 2322 Rocket 2.1 05:04:40 61° NNW 05:05:45 90° WSW 05:11:27 10° SSE
Nadezhda 4 Rocket 4.0 05:00:23 10° S 05:06:30 77° E 05:12:38 10° NNE
Meteor 1-11 Rocket 3.7 05:00:59 10° SSW 05:06:55 86° WNW 05:12:47 10° NNE
Cosmos 44 Rocket 3.6 05:09:50 52° N 05:09:50 52° N 05:13:43 10° NE
BREEZE-M DEB (TANK) 3.5 05:12:16 41° W 05:15:11 72° SSW 05:18:38 10° ESE
Cosmos 1538 Rocket 4.2 05:15:16 10° SSW 05:20:29 71° ESE 05:25:48 10° NNE
Thor Agena Rocket 4.2 05:15:59 10° SE 05:20:52 52° ENE 05:25:41 11° N
SKYMED 2 4.1 05:20:15 10° S 05:23:29 45° SSW 05:23:29 45° SSW
Meteor 2-20 Rocket 4.3 05:22:10 10° SSW 05:28:18 78° WNW 05:34:25 10° N
Cosmos 2322 4.3 05:25:24 22° NNW 05:28:57 55° NE 05:34:31 10° SE
Meteor 1-5 Rocket 3.9 05:25:58 10° SSW 05:31:22 81° WNW 05:36:44 10° NNE
Cosmos 2082 Rocket 2.6 05:33:06 39° NW 05:33:09 39° NW 05:38:30 10° NNE
Cosmos 44 3.8 05:36:41 36° NNW 05:36:41 36° NNW 05:40:21 10° NNE
Timation 2 Rocket 4.1 05:29:18 10° SSW 05:36:14 89° WNW 05:43:07 10° NNE
SL-16 R/B 4.4 05:34:13 10° N 05:37:27 15° NNE 05:40:40 10° ENE
Cosmos 1833 Rocket 3.2 05:37:41 36° NW 05:37:41 36° NW 05:42:52 10° NNE
USA 234 3.8 05:34:52 10° SSE 05:40:56 39° SW 05:43:08 31° W
Aureole 2 Rocket 4.4 05:42:24 15° N 05:44:24 24° NE 05:47:09 10° ESE
Cosmos 2056 Rocket 4.2 05:43:04 15° NNW 05:47:15 51° ENE 05:52:15 10° SE
Okean 1-7 Rocket 3.5 05:44:18 21° NNW 05:47:21 78° W 05:51:54 10° S
Cosmos 1092 Rocket 3.8 05:41:17 10° SSW 05:47:26 79° W 05:53:38 10° N
PAYLOAD A 4.0 05:43:17 10° NNE 05:48:45 80° WNW 05:54:07 10° SSW
CZ-4B R/B 3.8 05:46:07 10° N 05:51:03 33° WNW 05:51:28 32° WNW
Meteor 1-4 Rocket 2.5 05:49:19 10° SSW 05:53:07 80° WNW 05:56:57 10° N
Cosmos 1300 Rocket 3.7 05:49:53 10° SSW 05:54:02 45° WNW 05:58:14 10° N
SeaSat 1 2.6 05:49:27 10° NNE 05:54:14 50° NW 05:57:02 23° WSW
ERBS 3.2 05:54:06 33° N 05:54:29 34° N 05:57:36 10° ENE
Cosmos 1025 Rocket 3.1 05:54:07 36° NW 05:55:25 49° W 05:59:32 10° S
Cosmos 2333 Rocket 3.5 05:50:50 12° NNW 05:55:45 35° NE 06:01:01 10° ESE
Cosmos 2195 Rocket 4.5 05:52:22 10° S 05:58:42 89° WNW 06:05:00 10° N
Cosmos 1340 Rocket 4.0 05:55:10 10° N 05:58:56 41° ENE 06:02:41 10° SE
COSMOS 2428 3.3 05:54:10 14° NNW 05:59:00 55° NE 06:04:38 10° SE
Cosmos 1655 Rocket 4.5 05:54:36 10° S 06:00:45 65° E 06:07:01 10° NNE
Cosmos 2026 Rocket 4.1 05:55:21 10° S 06:01:39 86° E 06:08:04 10° N
Cosmos 1066 Rocket 4.0 05:56:48 10° NNW 06:02:10 75° W 06:07:33 10° S
Cosmos 2360 Rocket 2.1 05:58:14 20° NNW 06:02:16 78° WSW 06:07:55 10° SSE
Cosmos 1980 Rocket 4.2 06:05:31 11° WSW 06:05:31 11° WSW 06:05:58 10° SW
CZ-4C R/B 2.2 05:58:01 10° SW 06:03:27 86° NW 06:09:48 10° NE
deb Kosmos-1763 3.9 06:00:21 10° SSW 06:04:06 77° WNW 06:07:51 10° NNE
Cosmos 1553 Rocket 4.1 05:57:55 10° N 06:04:15 83° E 06:10:26 10° SSE
NOAA 6 4.2 06:00:21 10° N 06:05:18 49° WNW 06:10:14 10° SW
Cosmos 1500 3.1 06:01:29 10° SSW 06:05:18 65° WNW 06:09:09 10° N
Cosmos 1417 Rocket 4.5 06:00:51 10° N 06:07:13 85° W 06:13:35 10° S
CZ-2C R/B 2.2 06:04:03 10° N 06:08:58 72° WNW 06:13:41 10° SSW
Ariane Rocket 4.1 06:06:01 10° NNE 06:10:55 47° E 06:15:48 10° S
Cosmos 2219 Rocket 3.1 06:06:31 11° NNW 06:11:49 47° NE 06:17:16 10° SE
CZ-4 R/B 3.0 06:08:36 10° NNE 06:12:32 38° E 06:16:29 10° SSE
COSMO-SKYMED 1 4.0 06:09:32 10° SW 06:12:04 21° WSW 06:12:04 21° WSW
Cosmos 1627 Rocket 4.5 06:06:36 10° SSW 06:12:58 76° WNW 06:19:24 10° N
Okean-O 3.0 06:10:13 10° N 06:14:21 38° WNW 06:18:27 10° SW
Cosmos 1271 Rocket 3.9 06:12:30 10° SSE 06:16:05 43° E 06:19:40 10° NNE
Genesis I 4.5 06:13:33 17° NNW 06:16:11 36° NE 06:19:56 10° ESE
Cosmos 1184 Rocket 3.6 06:17:58 30° W 06:18:15 31° W 06:21:14 10° SSW
Cosmos 2237 Rocket 3.4 06:22:36 10° NNW 06:27:53 37° NE 06:33:07 10° ESE
Okean 1 Rocket 3.7 06:25:36 10° SW 06:29:34 33° WNW 06:33:37 10° N
Cosmos 773 Rocket 4.3 06:24:50 10° SW 06:29:45 43° WNW 06:34:44 10° NNE
Cosmos 1624 Rocket 4.0 06:24:52 11° NNW 06:30:07 76° WSW 06:35:27 10° SSE
IDEFIX/ARIANE 42P 2.9 06:25:57 10° N 06:30:48 41° WNW 06:35:39 10° SW
SJ-12 3.9 06:26:54 10° N 06:30:54 55° WNW 06:34:51 10° SSW
Cosmos 1428 Rocket 4.5 06:25:19 10° SSW 06:31:37 80° W 06:37:57 10° N
MSX 3.8 06:29:50 10° N 06:35:30 59° WNW 06:41:07 10° SW
CSL-04 Debris 4.4 06:30:28 10° NNE 06:35:56 76° ESE 06:41:24 10° S
Cosmos 1666 2.6 06:33:44 10° S 06:37:34 88° W 06:41:24 10° N
ATLAS 5 CENTAUR R/B 2.6 06:33:03 14° NW 06:38:02 64° NE 06:44:21 10° ESE
SJ-7 4.3 06:35:00 10° N 06:39:03 75° WNW 06:43:07 10° SSW
Cosmos 1680 Rocket 3.4 06:34:28 10° SSW 06:39:41 75° WNW 06:44:57 10° NNE
Cosmos 1975 3.0 06:38:07 10° SSW 06:41:58 47° WNW 06:45:51 10° N
AQUARIUS 4.2 06:38:21 10° NNE 06:42:54 88° WNW 06:47:24 10° SSW
SL-16 R/B 3.6 06:41:05 15° WNW 06:43:27 19° W 06:47:19 10° SW
Cosmos 1626 Rocket 3.6 06:39:36 10° N 06:43:57 82° ENE 06:48:18 10° SSE
Cosmos 1892 Rocket 4.0 06:40:03 10° NNW 06:44:10 39° W 06:48:14 10° SSW
YAOGAN 1 3.4 06:39:56 10° NNE 06:44:13 55° E 06:48:28 10° S
Meteor 1-12 Rocket 4.2 06:38:59 10° SSW 06:44:40 74° WNW 06:50:20 10° N
Cosmos 389 Rocket 2.4 06:41:23 10° SSW 06:45:00 69° WNW 06:48:36 10° N
IRAS Rocket 4.4 06:39:27 10° NNE 06:45:02 82° ESE 06:50:36 10° SSW
NOSS 0 Rocket 4.3 06:39:15 10° NNW 06:45:24 63° NE 06:51:29 10° SE
USA 267 3.4 06:39:09 10° ENE 06:45:33 61° N 06:51:58 10° W
Cosmos 1356 Rocket 4.3 06:42:20 10° N 06:46:18 48° ENE 06:50:18 10° SSE
Cosmos 2322 Rocket 3.6 06:46:31 14° WNW 06:49:01 18° W 06:52:42 10° SW
Cosmos 1371 Rocket 4.4 06:46:57 10° NW 06:51:54 44° WSW 06:56:48 10° S
CSL-04 Rocket 3.7 06:48:25 10° NNE 06:53:59 76° WNW 06:59:32 10° SSW
ERS-2 3.9 06:53:58 10° NNE 06:57:26 37° E 07:00:53 10° S
Cosmos 2285 Rocket 4.0 06:53:46 10° SW 06:59:59 59° WNW 07:06:14 10° NNE
Thor Agena Rocket 4.5 06:56:12 10° SSW 07:00:27 27° W 07:04:47 10° NW
ATLAS CENTAUR R/B 2.7 06:57:45 10° SSW 07:01:13 40° SE 07:04:42 10° NE
SMAP 3.1 06:56:52 10° N 07:01:30 62° WNW 07:06:05 10° SSW
Cosmos 1238 Rocket 4.0 06:55:29 10° NNW 07:02:12 75° W 07:08:16 10° S
Cosmos 1980 4.1 07:02:39 10° NNW 07:08:20 67° NE 07:13:58 10° SE
Cosmos 1602 Rocket 3.6 07:08:05 10° NNW 07:12:21 58° W 07:16:35 10° S
ALOS 2.8 07:10:17 10° NNE 07:14:57 64° ESE 07:19:35 10° S
Cosmos 1378 4.0 07:11:41 10° N 07:15:23 53° ENE 07:19:04 10° SSE
Cosmos 1484 Rocket 3.5 07:12:28 10° N 07:15:58 31° WNW 07:19:24 10° SW
Cosmos 1842 3.8 07:13:57 10° NNW 07:17:40 39° W 07:21:21 10° SSW
Cosmos 2082 Rocket 3.9 07:15:49 10° NW 07:18:56 15° NNW 07:22:03 10° N
Aureole 2 Rocket 3.3 07:16:22 10° NW 07:19:24 29° WSW 07:22:13 10° SSW
Cosmos 1825 Rocket 4.0 07:15:45 10° N 07:20:03 65° ENE 07:24:22 10° SSE
Cosmos 1743 3.6 07:18:54 10° SW 07:22:11 27° WNW 07:25:31 10° N
SL-16 R/B 3.2 07:17:48 10° NNW 07:23:13 41° NE 07:28:35 10° ESE
Cosmos 1833 Rocket 4.4 07:20:34 10° NW 07:23:23 14° NNW 07:26:12 10° N
Cosmos 1833 4.3 07:17:54 10° SW 07:23:25 57° NW 07:28:58 10° NNE
APEX 4.0 07:21:58 10° WSW 07:25:32 37° NW 07:30:03 10° NNE
Cosmos 1455 Rocket 3.7 07:22:03 10° SW 07:26:10 36° WNW 07:30:20 10° N
